Wind_Speed
20 20 21 21 22 23 23 24 24 24 24 24 24 24 25 26 28 29 29 29 30 31 31 32 33 34 34 35 34 35 35 35 35 35 35 35 35 35
20 21 21 21 22 22 23 23 23 23 23 23 24 24 25 26 27 28 29 28 29 29 30 32 32 33 33 33 33 34 35 35 35 35 35 36 36 36
22 22 22 22 22 22 23 23 23 23 24 24 24 25 26 26 26 27 28 28 28 29 30 31 31 32 33 33 33 35 35 36 36 36 36 36 36 37
21 21 22 22 22 22 22 23 23 24 24 25 25 26 26 26 26 27 27 27 28 29 30 30 30 31 33 33 34 35 36 36 36 37 38 38 37 38
22 22 22 22 21 21 22 22 22 23 24 24 24 25 25 26 26 26 26 26 27 28 29 29 30 31 32 33 34 35 36 36 37 38 39 39 39 39
21 21 21 21 21 22 22 22 22 22 23 23 23 23 23 24 25 25 25 25 26 27 28 28 30 31 32 34 34 35 36 36 37 38 38 39 39 40
20 20 20 21 21 21 21 21 21 21 21 22 21 21 21 22 23 23 24 24 24 25 26 27 29 31 32 33 34 35 36 37 37 38 39 40 40 40
21 21 21 21 21 21 21 21 20 20 19 20 19 19 19 19 19 20 20 21 22 23 24 25 27 28 30 31 32 34 35 37 38 39 40 40 41 40
21 21 21 21 21 20 20 20 20 18 18 17 17 17 17 17 17 18 19 20 20 21 22 23 24 25 27 28 29 31 32 33 35 37 38 39 40 41
20 20 20 19 19 19 18 18 18 17 17 16 16 16 16 17 17 18 20 20 20 21 22 22 23 24 26 27 28 29 31 32 33 34 37 37 38 39
20 20 19 19 19 18 17 17 16 16 15 16 15 16 16 16 17 18 19 19 19 21 22 23 22 23 24 26 27 28 29 31 32 33 35 37 37 38
20 19 19 18 18 18 17 16 15 15 15 15 15 15 16 16 16 17 18 18 18 18 20 21 21 23 23 25 27 27 28 29 31 33 34 35 35 36
19 18 18 19 18 18 16 16 15 15 15 15 15 15 15 15 15 15 16 17 17 17 18 20 21 21 21 23 25 26 26 27 29 31 32 33 34 35
18 18 18 18 18 17 16 16 16 15 16 15 15 15 15 15 15 14 15 15 16 17 18 18 19 19 20 22 23 24 25 26 28 29 30 31 32 34
18 18 18 18 17 17 16 16 16 17 16 16 16 16 15 15 15 15 15 15 15 16 17 17 17 18 19 20 21 23 24 25 26 27 28 29 30 32
18 18 18 18 18 17 17 17 17 17 17 17 17 16 16 16 15 15 15 16 16 17 18 18 18 19 20 20 21 21 23 24 25 26 27 28 29 30
18 18 19 19 18 18 18 17 17 17 17 16 16 16 16 16 16 16 16 16 17 17 17 18 18 18 19 19 20 20 21 22 23 24 24 24 25 27
17 17 17 18 18 17 17 17 17 17 16 16 16 16 16 16 16 16 17 16 16 17 17 18 18 17 17 18 18 18 19 20 21 22 22 23 23 24
17 17 17 17 17 17 16 16 17 17 16 16 17 17 16 16 16 16 16 16 16 16 17 18 17 17 17 17 17 18 18 18 19 19 20 20 21 23
16 16 16 16 16 17 17 16 17 17 16 17 17 18 18 17 17 17 17 16 16 16 17 17 16 16 16 17 17 16 17 17 18 19 19 20 21 22
16 16 16 16 17 17 17 17 17 17 18 18 18 18 18 18 18 17 16 16 16 16 16 16 16 16 17 17 16 15 15 16 17 19 19 19 20 20
17 17 17 17 17 18 18 17 17 18 18 18 18 18 18 18 18 17 16 17 16 16 16 16 16 16 16 17 17 16 16 17 17 17 18 18 19 19
18 19 19 19 19 19 19 18 18 19 19 19 18 18 18 17 17 17 16 16 16 16 16 16 16 16 16 16 16 16 16 16 16 17 17 17 17 18
Wind_Direction
301 298 295 292 289 287 284 283 282 278 275 272 270 269 268 264 261 260 258 257 257 255 254 254 252 252 250 250 250 249 249 248 248 248 248 247 245 245
304 303 301 297 292 290 288 286 284 280 275 272 270 270 268 266 263 261 259 259 258 256 255 254 253 252 251 251 250 249 248 247 248 247 247 247 246 245
304 303 303 300 296 292 287 285 283 280 276 274 272 271 268 265 263 262 260 260 258 257 255 253 252 251 251 252 251 249 248 249 249 247 246 245 245 246
304 303 303 301 297 294 291 286 283 281 279 276 273 272 270 265 262 261 261 260 259 256 255 254 253 252 251 251 251 250 249 249 249 248 246 245 245 246
306 305 303 301 299 297 295 291 287 284 281 279 276 275 272 267 264 262 261 260 259 256 254 253 253 253 252 252 252 251 250 249 249 248 247 246 246 245
310 309 308 306 303 301 298 295 292 288 286 284 281 278 274 269 266 264 263 262 261 259 256 254 253 253 253 254 254 253 252 249 248 247 247 247 247 246
309 310 310 310 307 303 301 299 296 292 288 286 284 280 276 272 268 266 265 264 264 263 260 257 256 255 256 257 256 255 253 250 247 246 246 247 247 246
308 307 307 309 308 306 304 302 300 296 290 288 284 282 278 275 272 270 268 268 267 266 263 260 258 256 255 257 257 257 257 254 250 247 245 246 247 246
310 309 308 308 308 307 307 305 302 298 296 293 288 285 281 278 277 273 270 270 270 268 266 262 259 258 257 257 259 259 258 256 252 249 247 246 247 247
317 314 314 313 313 311 309 307 305 300 297 295 291 289 283 279 279 278 277 276 274 271 269 266 262 262 261 261 260 261 259 256 255 253 250 249 248 247
318 319 317 316 315 315 314 312 309 306 301 298 296 293 289 285 285 284 282 280 276 274 272 270 265 265 265 265 265 263 261 258 255 253 251 250 249 247
320 319 319 317 315 315 314 314 313 310 307 305 302 299 295 290 290 291 288 285 283 280 277 274 272 269 267 268 267 266 264 261 257 255 253 251 250 248
320 320 319 319 318 315 314 316 317 315 314 311 307 304 300 297 298 297 295 293 291 288 284 281 279 274 272 271 270 269 267 264 261 257 254 252 249 249
320 320 320 320 319 319 319 320 319 318 317 314 312 310 307 303 301 301 301 297 295 293 291 288 284 280 278 276 274 271 268 265 261 258 256 253 250 248
321 321 321 321 320 319 319 320 321 321 319 317 316 314 311 309 305 303 303 302 300 298 296 293 291 286 285 283 278 273 271 267 264 261 258 256 253 251
322 322 322 321 320 319 318 317 319 320 318 317 316 314 311 308 305 303 304 306 306 304 302 298 296 292 290 288 284 280 276 271 267 263 260 258 256 254
321 321 321 320 320 320 318 317 318 318 319 318 318 317 314 310 307 306 306 307 308 308 306 303 301 297 294 291 287 282 279 275 272 268 264 260 258 255
322 322 321 320 320 320 320 319 318 318 317 317 318 317 314 310 307 306 305 305 307 307 306 305 303 300 297 295 293 288 284 280 277 272 269 264 262 259
324 323 321 320 319 320 321 322 320 317 317 316 317 317 314 311 308 307 307 306 307 308 308 306 305 303 302 300 297 294 291 288 284 279 274 270 264 261
322 322 323 322 322 322 322 322 321 319 319 319 318 318 316 313 310 307 306 306 306 305 306 307 309 308 308 307 304 299 294 291 289 284 279 273 268 264
319 319 321 321 321 321 321 321 320 320 321 319 317 316 316 314 311 307 304 304 305 305 306 307 309 311 311 309 307 301 295 293 292 290 285 278 271 265
318 318 318 319 319 319 319 320 320 319 319 317 317 317 316 315 312 308 306 305 305 306 308 309 311 312 311 310 307 304 299 297 294 293 291 285 276 270
313 314 314 314 315 315 317 318 318 317 317 318 317 317 316 315 314 312 309 307 306 306 307 308 310 313 314 313 311 309 306 303 299 297 295 288 279 272
Height
5746 5744 5741 5739 5736 5735 5733 5731 5731 5730 5729 5728 5727 5726 5726 5726 5726 5727 5727 5728 5729 5730 5731 5733 5734 5736 5738 5739 5741 5744 5746 5748 5751 5753 5755 5758 5760 5763
5741 5738 5735 5732 5730 5728 5725 5724 5722 5722 5721 5720 5719 5719 5718 5718 5718 5718 5719 5719 5720 5721 5722 5723 5725 5726 5728 5729 5732 5734 5736 5739 5741 5743 5745 5748 5751 5753
5735 5732 5729 5726 5724 5721 5719 5717 5715 5714 5713 5713 5712 5711 5711 5710 5710 5710 5710 5711 5711 5712 5713 5714 5715 5716 5718 5720 5722 5724 5726 5729 5731 5733 5736 5738 5741 5744
5729 5727 5724 5721 5718 5715 5712 5710 5708 5707 5706 5705 5704 5703 5702 5702 5702 5702 5702 5702 5702 5703 5704 5705 5706 5707 5709 5711 5713 5714 5716 5718 5721 5723 5726 5728 5731 5733
5724 5721 5718 5715 5712 5709 5706 5703 5701 5700 5698 5697 5696 5695 5694 5693 5693 5693 5693 5693 5693 5694 5694 5695 5696 5698 5699 5701 5703 5704 5706 5708 5710 5712 5715 5718 5720 5723
5719 5716 5712 5709 5706 5703 5700 5697 5695 5693 5691 5689 5688 5687 5686 5685 5685 5685 5685 5685 5685 5685 5685 5686 5687 5688 5690 5691 5693 5694 5695 5697 5699 5701 5704 5707 5710 5713
5713 5710 5707 5704 5701 5698 5695 5692 5688 5686 5684 5682 5681 5680 5679 5678 5678 5677 5677 5677 5677 5676 5676 5677 5678 5679 5680 5681 5682 5683 5684 5686 5688 5690 5693 5696 5699 5702
5708 5705 5702 5698 5695 5692 5689 5686 5683 5680 5678 5676 5675 5674 5673 5672 5671 5671 5670 5670 5670 5670 5668 5668 5669 5670 5670 5671 5672 5673 5674 5675 5677 5679 5682 5684 5687 5690
5702 5699 5696 5693 5690 5687 5684 5681 5677 5675 5673 5671 5669 5668 5667 5667 5666 5665 5664 5663 5663 5662 5661 5661 5661 5662 5662 5662 5662 5663 5664 5665 5666 5668 5670 5673 5676 5679
5698 5694 5691 5688 5684 5681 5679 5675 5672 5670 5668 5666 5664 5663 5662 5661 5660 5659 5658 5657 5656 5655 5654 5654 5654 5654 5654 5653 5653 5654 5654 5655 5656 5657 5659 5661 5664 5667
5693 5690 5686 5683 5680 5677 5674 5671 5668 5665 5663 5661 5659 5657 5656 5655 5654 5652 5651 5650 5649 5648 5647 5646 5646 5646 5646 5645 5644 5644 5644 5645 5645 5647 5648 5650 5653 5655
5689 5685 5682 5679 5676 5673 5670 5667 5664 5662 5659 5656 5654 5652 5651 5649 5647 5646 5644 5643 5642 5642 5640 5639 5638 5637 5637 5637 5636 5635 5634 5634 5635 5636 5637 5639 5641 5643
5685 5681 5678 5675 5672 5669 5666 5664 5661 5658 5655 5652 5650 5648 5646 5644 5642 5640 5638 5637 5636 5635 5634 5632 5631 5630 5629 5628 5627 5626 5625 5625 5625 5625 5626 5628 5630 5632
5681 5677 5674 5671 5668 5665 5663 5660 5657 5654 5651 5649 5646 5644 5641 5639 5637 5635 5633 5631 5630 5629 5627 5626 5624 5623 5622 5620 5619 5618 5616 5616 5616 5616 5617 5618 5619 5621
5677 5674 5671 5668 5665 5662 5659 5656 5653 5650 5647 5645 5642 5640 5637 5635 5633 5631 5629 5627 5625 5623 5621 5619 5618 5616 5614 5612 5611 5609 5608 5607 5607 5607 5607 5608 5609 5610
5673 5670 5667 5664 5661 5658 5655 5652 5649 5646 5643 5641 5638 5635 5633 5631 5629 5626 5624 5622 5620 5618 5615 5613 5611 5609 5607 5605 5603 5601 5600 5599 5598 5598 5598 5599 5600 5601
5669 5666 5663 5660 5657 5654 5651 5648 5645 5642 5639 5637 5634 5631 5629 5627 5624 5622 5620 5618 5615 5613 5611 5608 5605 5603 5601 5598 5596 5594 5592 5591 5590 5590 5590 5591 5591 5592
5665 5662 5659 5656 5653 5650 5647 5644 5641 5638 5635 5633 5630 5628 5625 5623 5620 5618 5616 5613 5611 5608 5606 5603 5600 5598 5595 5593 5590 5588 5586 5584 5583 5583 5582 5583 5584 5585
5662 5659 5655 5652 5649 5646 5643 5640 5637 5634 5631 5629 5626 5624 5621 5618 5616 5613 5611 5608 5606 5603 5600 5598 5595 5592 5590 5588 5585 5582 5580 5578 5577 5576 5575 5576 5576 5577
5658 5655 5652 5649 5646 5643 5640 5637 5634 5630 5627 5624 5622 5619 5616 5613 5611 5608 5606 5603 5601 5598 5595 5593 5590 5587 5585 5582 5580 5577 5574 5572 5571 5570 5569 5569 5569 5569
5655 5651 5648 5645 5642 5639 5636 5633 5630 5627 5623 5620 5618 5615 5612 5609 5606 5603 5600 5598 5595 5593 5590 5588 5585 5582 5579 5577 5574 5572 5570 5567 5565 5563 5562 5562 5561 5561
5651 5647 5644 5641 5638 5635 5632 5629 5626 5623 5620 5616 5613 5610 5607 5604 5601 5598 5595 5593 5590 5588 5585 5583 5580 5577 5575 5572 5569 5567 5565 5562 5560 5558 5556 5555 5554 5554
5646 5643 5640 5637 5634 5630 5627 5624 5621 5618 5615 5612 5609 5606 5602 5599 5596 5593 5590 5588 5585 5583 5581 5578 5576 5573 5570 5567 5564 5562 5559 5557 5555 5553 5551 5549 5547 5547